Terug naar catalogus

COSMOS 946

ActiefNavigatieLEO
NORAD 10292·PAYLOAD·🇷🇺 Russia

Gelanceerd Aug 24, 1977 vanaf Plesetsk Cosmodrome

Loading…

Volgende Passages (komende 24 uur)

TLE

VersSource: Space-Track

Epoch: Sep 14, 2026, 11:12 UTC

1 10292U 77079H   26257.46695444 -.00000028  00000-0 -85311-4 0  9992
2 10292  74.0224  68.7690 0031114 255.3417 132.7800 12.44921374210010

Volg COSMOS 946 in realtime met AllMySat

Download on the App Store